www.pogodaiklimat.ru

Погода и климат >> Архив погоды >> Уоллис и Футуна >> Остров Увеа


ПОГОДА на Острове Увеа

  • Прогноз погоды на Острове Увеа
  • Монитор погоды на Острове Увеа

АРХИВ ПОГОДЫ на Острове Увеа

Время (UTC), дата Ветер
(напр.,м/с)
 
Видим.   Явления Облачность Т
(С)
Тd
(С)
f
(%)
Тe
(С)
Тes
(С)
Комфортность P
(гПа)
Po
(гПа)
Тmin
(С)
Tmax
(С)
R
(мм)
R24
(мм)
S
(см)
09 17.04 ЮВ 1
{3}
60 км н/о +26.9 +25.7 93 +40 +40 очень
душно
1012.0 1008.8 0.2
12 17.04 В 2
{4}
60 км н/о +27.7 +25.7 89 +41 +41 опасность
перегрева
1011.3 1008.1 0.0
15 17.04 ЮВ 1
{3}
60 км н/о +27.0 +25.0 89 +39 +39 очень
душно
1010.1 1006.9 0.0
18 17.04 ЮВ 2
{3}
30 км 4/4 600 м
[Cu med, cong Ac lent]
+26.5 +25.3 93 +38 +38 очень
душно
1010.3 1007.1 +26.0 +27.9
21 17.04 В 3
{5}
30 км 4/4 600 м
[Cu Sc Ac lent]
+31.4 +26.4 75 +48 +53 опасность
перегрева
1012.0 1008.9
00 18.04 В 3
{6}
60 км н/о +31.4 +26.9 77 +49 +49 опасность
перегрева
1010.4 1007.3 0.0
03 18.04 В 3
{8}
55 км н/о +29.9 +24.5 73 +42 +42 опасность
перегрева
1008.8 1005.7
06 18.04 ЮВ 2
{4}
55 км н/о +28.3 +25.3 84 +41 +41 опасность
перегрева
1009.4 1006.2 +26.5 +31.7
09 18.04 ЮВ 1
{3}
55 км н/о +27.7 +25.5 88 +41 +41 опасность
перегрева
1011.3 1008.1
12 18.04 штиль 0
{3}
35 км н/о +26.1 +25.2 95 +38 +38 очень
душно
1011.2 1008.0 0.4
15 18.04 Ю 1
{3}
45 км н/о +25.8 +24.9 95 +37 +37 очень
душно
1010.3 1007.1 0.8
18 18.04 Ю 3
{6}
40 км 10/10 300 м
[]
+25.9 +25.0 95 +37 +37 очень
душно
1010.8 1007.6 +25.6 +28.3 23
21 18.04 ЮВ 2
{3}
20 км 10/6 480 м
[Cu med, cong Ac trans Ci sp]
+27.6 +25.6 89 +41 +43 опасность
перегрева
1011.4 1008.2
00 19.04 ЮВ 4
{7}
14 км н/о +30.2 +25.7 77 +45 +45 опасность
перегрева
1010.2 1007.1
03 19.04 ЮВ 3
{6}
20 км 9/4 480 м
[Cu med, cong Ac trans Ci sp]
+29.9 +25.4 77 +44 +46 опасность
перегрева
1007.8 1004.7
06 19.04 ЮВ 3
{6}
55 км 9/9 300 м
[]
+27.7 +25.5 88 +41 +41 опасность
перегрева
1008.7 1005.5 +25.8 +31.1 0.0
09 19.04 ЮВ 3
{7}
55 км н/о +28.1 +25.3 85 +41 +41 опасность
перегрева
1010.3 1007.1
12 19.04 В 3
{5}
35 км 8/8 300 м
[]
+27.7 +25.1 86 +40 +40 очень
душно
1010.0 1006.8 0.0
15 19.04 В 2
{4}
60 км н/о +27.9 +25.1 85 +40 +40 очень
душно
1007.9 1004.7 0.0
18 19.04 ЮВ 2
{3}
20 км 9/5 570 м
[Cu med, cong Ac trans Ci sp]
+27.0 +25.2 90 +39 +39 очень
душно
1008.8 1005.6 +26.8 +28.2 0.0
21 19.04 В 3
{5}
20 км слаб. дождь 9/6 240 м
[Cu Sc Ci sp]
+28.3 +25.9 87 +42 +45 опасность
перегрева
1010.6 1007.4 16
00 20.04 ЮВ 4
{6}
20 км {ливн. осадки, дождь} 8/4 540 м
[Cu med, cong Ci sp]
+31.2 +26.2 75 +47 +54 опасность
перегрева
1008.8 1005.7 0.0
03 20.04 В 3
{6}
45 км 8/8 600 м
[]
+29.5 +25.3 78 +43 +44 опасность
перегрева
1007.5 1004.4
06 20.04 В 5
{8}
21 км слаб. дождь 10/10 300 м
[]
+27.3 +24.2 83 +38 +38 очень
душно
1008.7 1005.5 +24.9 +32.0 0.0
09 20.04 ЮВ 2
{3}
29 км слаб. дождь 10/10 600 м
[]
+26.4 +25.4 94 +38 +38 очень
душно
1011.0 1007.8 5
12 20.04 ЮВ 2
{3}
40 км 10/10 300 м
[]
+25.9 +24.9 94 +37 +37 очень
душно
1010.1 1006.9 0.0
15 20.04 ЮВ 1
{5}
7000 м слаб. дождь 10/10 600 м
[]
+25.9 +25.0 95 +37 +37 очень
душно
1008.9 1005.7 6
18 20.04 Ю 1
{6}
45 км 9/9 300 м
[]
+26.1 +25.4 96 +38 +38 очень
душно
1009.8 1006.6 +25.7 +27.1 0.4
21 20.04 В 4
{6}
20 км 4/3 630 м
[Cu med, cong Ci sp]
+30.8 +25.6 74 +45 +50 опасность
перегрева
1010.6 1007.5
00 21.04 В 5
{8}
20 км 4/3 700 м
[Cu med, cong Ci sp]
+31.1 +26.1 75 +47 +54 опасность
перегрева
1009.5 1006.4 0.0
03 21.04 В 4
{7}
55 км н/о +29.7 +25.0 76 +43 +43 опасность
перегрева
1008.1 1005.0
06 21.04 ЮВ 1
{3}
60 км н/о 1006.3 +26.1 +31.7
09 21.04 Ю 2
{3}
50 км 9/9 600 м
[]
1007.8
12 21.04 ЮВ 2
{3}
35 км 8/8 300 м
[]
1007.7
15 21.04 ЮВ 1
{3}
50 км н/о 1006.5
18 21.04 Ю 2
{2}
30 км 6/4 720 м
[Cu med, cong Ac lent Ci sp]
1007.3
21 21.04 ЮВ 2
{5}
30 км 8/6 540 м
[Cb calv Ci sp]
1009.3
00 22.04 В 3
{5}
30 км 8/8 540 м
[Cb calv Ci sp]
+30.4 +25.9 77 +45 +49 опасность
перегрева
1010.7 1007.6
03 22.04 СВ 2
{5}
30 км 8/6 630 м
[Cu Sc As op]
+29.3 +25.5 80 +43 +45 опасность
перегрева
1008.7 1005.6
06 22.04 ЮВ 2
{3}
27 км н/о +27.3 +25.3 89 +40 +40 очень
душно
1010.3 1007.1
09 22.04 штиль 0
{2}
35 км н/о +26.3 +25.4 95 +38 +38 очень
душно
1011.5 1008.3
12 22.04 СВ 2
{3}
60 км н/о +26.8 +24.8 89 +38 +38 очень
душно
1011.0 1007.8
15 22.04 СВ 1
{3}
60 км н/о +27.4 +24.5 84 +39 +39 очень
душно
1009.7 1006.5
18 22.04 СВ 2
{3}
30 км 1/1 600 м
[Cu hum Ci fib]
+27.3 +24.7 86 +39 +39 очень
душно
1010.2 1007.0 +25.9 +27.5
21 22.04 С 3
{5}
30 км 3/3 630 м
[Cu hum]
+30.7 +25.3 73 +45 +51 опасность
перегрева
1011.7 1008.6
00 23.04 С 3
{6}
30 км 3/3 630 м
[Cu hum]
+31.1 +26.1 75 +47 +57 опасность
перегрева
1010.1 1007.0
03 23.04 С 4
{8}
30 км 6/6 630 м
[Cu Sc Ci fib]
+30.6 +26.1 77 +46 +48 опасность
перегрева
1008.5 1005.4
06 23.04 штиль 0
{2}
45 км н/о +26.6 +25.4 93 +39 +39 очень
душно
1009.0 1005.8 +26.6 +31.7 2
09 23.04 штиль 0
{1}
40 км 10/10 300 м
[]
+26.3 +25.6 96 +39 +39 очень
душно
1010.4 1007.2
12 23.04 штиль 0
{1}
50 км 8/8 600 м
[]
+25.9 +25.4 97 +38 +38 очень
душно
1010.3 1007.1
15 23.04 штиль 0
{2}
35 км н/о +25.8 +25.1 96 +37 +37 очень
душно
1008.8 1005.6
18 23.04 штиль 0
{2}
30 км 4/3 570 м
[Cu med, cong Ci fib]
+25.5 +25.0 97 +36 +36 очень
душно
1008.9 1005.7 +25.5 +26.9
21 23.04 СЗ 3
{4}
30 км 4/4 600 м
[Cu med, cong Ci fib]
+30.4 +25.9 77 +45 +51 опасность
перегрева
1010.4 1007.3
00 24.04 СЗ 3
{7}
30 км 5/5 660 м
[Cu Sc]
+30.8 +25.6 74 +45 +52 опасность
перегрева
1008.7 1005.6
03 24.04 СЗ 4
{6}
30 км 5/5 630 м
[Cu med, cong]
+30.9 +25.9 75 +46 +49 опасность
перегрева
1007.4 1004.3
06 24.04 штиль 0
{3}
20 км н/о +28.3 +25.1 83 +41 +41 опасность
перегрева
1008.6 1005.4 +25.6 +31.9 0.0

 

Местоположение метеостанции Остров Увеа (Уоллис и Футуна): широта -13.24 долгота -176.19 высота над уровнем моря 27 м.

В архиве по умолчанию представлена погода на Острове Увеа за последнюю неделю. Архивные данные за месяц целиком и за предыдущие месяцы, начиная с января 2011 года, Вы можете получить, выбрав интересующий диапазон дат из раскрывающегося списка и нажав кнопку "Ввод!".


*Определитесь, кто Вы:
робот инопланетянин человек

Внимание! Время в таблицах - всемирное. Для получения местного времени необходимо прибавить поправку, которая равна 12 ч.

Смотрите также архив погоды в соседних городах и на ближайших метеорологических станциях:

Погода на Острове Футуна (Уоллис и Футуна) (240 км)
Погода на Острове Ниуафооу (Тонга) (266 км)
Погода на Станции Mount Talu (Самоа) (378 км)
Погода в Аэропорту Матаахо (Тонга) (398 км)
Погода на Станции Le Piu Tai (Самоа) (412 км)
Погода в Аэропорту Маота (Самоа) (429 км)
Погода на Острове Маноно (Самоа) (446 км)
Погода в Аэропорту Фалеоло (Самоа) (456 км)
Погода Фалеоло (Американское Самоа) (458 км)
Погода на Фалеоло восток (Самоа) (459 км)

Пояснения к столбцам:

Ветер - указаны скорость ветра в м/с - средняя за 10 мин, порывы в срок и между сроками (в фигурных скобках) и направление, откуда дует ветер: С - северный, СВ - северо-восточный, В - восточный, ЮВ - юго-восточный, Ю - южный, ЮЗ - юго-западный, З - западный, СЗ - северо-западный.
Видимость - горизонтальная дальность видимости в метрах или километрах. При видимости от 1 до 10 км при отсутствии осадков обычно наблюдается дымка, при ухудшении видимости до 1 км и менее - туман. В сухую погоду видимость может ухудшаться дымом, пылью или мглою.
Явления - указаны атмосферные явления, наблюдавшиеся в срок или в последний час перед сроком; фигурными скобками обозначены явления, наблюдавшиеся между сроками (за 1-3 часа до срока); квадратными скобками обозначены град или гололедные отложения с указанием их диаметра в мм.
Облачность - указаны через наклонную черту общая и нижняя облачность в баллах и высота нижней границы облаков в метрах; квадратными скобками обозначены формы облаков: Ci - перистые, Cs - перисто-слоистые, Cc - перисто-кучевые, Ac - высококучевые, As - высокослоистые, Sc - слоисто-кучевые, Ns - слоисто-дождевые, Cu - кучевые, Cb - кучево-дождевые. Подробнее классификацию облаков см. в Атласе облаков (PDF).
T - Температура воздуха - температура, измеренная на высоте 2 м над землей.
Td - Температура точки росы - температура, при понижении до которой содержащийся в воздухе водяной пар достигнет насыщения.
f - Относительная влажность воздуха - влажноcть воздуха, измеренная на высоте 2 м над землей.
Te - Эффективная температура - температура, которую ощущает одетый по сезону человек в тени. Характеристика душности погоды. При расчете учитывается влияние влажности воздуха и скорости ветра на теплоощущения человека.
Tes - Эффективная температура на солнце - температура, которую ощущает человек, с поправкой на солнечный нагрев. Характеристика знойности погоды. Зависит от высоты солнца над горизонтом, облачности и скорости ветра. Ночью, в пасмурную погоду, а также при ветре 12 м/с и более поправка равна нулю.
P - Атмосферное давление - приведенное к уровню моря атмосферное давление.
Po - Атмосферное давление - измеренное на уровне метеостанции атмосферное давление.
Tmin - Минимальная температура - минимум температуры воздуха на высоте 2 м над землей.
Tmax - Максимальная температура - максимум температуры воздуха на высоте 2 м над землей.
R - Количество осадков - Количество выпавших осадков за период времени, мм. При наведении курсора мыши на число - период времени, за который выпало указанное количество осадков.
R24 - Количество осадков - Количество выпавших осадков за 24 часа, мм.
S - Снежный покров - Высота снежного покрова, см. При наведении курсора мыши на число - состояние снежного покрова и степень покрытия местности в баллах.